カタログに戻る

COSMOS 2251 DEB

運用中LEO
NORAD 34910·DEBRIS·🇷🇺 Russia

打ち上げ Jun 16, 1993 から Plesetsk Cosmodrome

Loading…

次のパス (今後24時間)

TLE

最新Source: Space-Track

元期: Sep 13, 2026, 08:22 UTC

1 34910U 93036ADF 26256.34922152  .00000186  00000-0  20576-3 0  9995
2 34910  73.8756  27.9014 0466058  99.7412 294.1613 13.38028262851970

AllMySatでCOSMOS 2251 DEBをリアルタイム追跡

Download on the App Store